Theta_e
350 355 356 358 357 357 357 356 358 358 361 357 359 357 350 351 353 353 354 352 352 351 352 351 352 354 354 354 355 356 355 356 357 356 354 351 349 349 348 347 346 345 345 345 344 343 342 343 343 343 342 342 343 344 343 341 338 337 337 338 338 339 341 341 340 339 338 337 336 336 337 338 339 338 338 338 340 340 340 340 341 340 340 340 340 341 342 342 341 342 340 339 339 339 339 340 339
351 357 357 358 357 358 356 357 359 357 359 353 352 354 349 351 356 356 352 350 350 349 351 353 353 354 353 353 352 353 354 354 353 352 351 349 350 351 348 346 345 344 344 345 344 343 343 343 343 343 342 342 344 344 343 341 338 334 335 337 338 339 340 341 341 340 338 337 337 338 338 339 339 339 339 339 340 340 340 340 340 340 340 340 339 340 341 341 341 342 341 339 338 337 338 339 338
352 357 356 358 357 357 356 358 359 355 357 351 347 351 352 356 359 355 348 349 350 349 352 353 354 353 353 354 353 354 354 353 350 349 351 351 351 351 348 346 345 344 344 344 344 344 344 343 343 343 342 343 345 344 343 342 339 335 333 333 335 337 338 339 340 339 338 338 338 338 338 339 339 339 339 340 341 341 341 341 341 340 339 339 340 341 341 341 341 341 341 341 339 337 336 337 338
352 355 354 357 357 357 359 362 362 356 353 351 351 350 351 355 353 350 348 350 350 350 351 352 353 352 353 354 353 354 354 354 352 350 352 351 349 349 347 345 345 344 344 344 344 344 344 344 343 343 343 343 344 344 344 343 342 339 335 332 333 334 335 336 338 339 338 339 339 338 339 339 339 339 339 339 340 340 341 341 340 340 339 339 340 341 341 341 342 342 343 343 340 337 336 336 336
352 355 355 355 357 359 362 364 362 356 351 355 358 352 348 349 348 348 348 350 350 351 350 351 352 351 353 353 353 354 354 354 353 351 352 352 349 347 345 344 344 344 343 344 344 344 345 345 345 345 345 343 343 343 344 344 343 341 339 336 335 335 335 337 339 339 339 339 339 339 339 338 338 338 338 339 339 340 341 341 340 339 339 339 339 341 341 340 341 342 343 343 341 338 336 337 337
353 356 355 353 355 356 358 360 360 354 350 354 358 354 349 345 347 348 347 350 351 351 351 352 352 353 353 353 353 354 355 354 354 352 352 351 348 347 345 343 343 344 343 344 344 344 345 345 345 346 345 344 344 344 345 344 344 343 342 341 340 339 339 339 340 339 339 339 340 340 338 337 336 336 337 338 339 340 340 341 340 337 337 338 339 340 340 339 340 341 341 341 341 338 337 338 338
353 354 354 355 354 355 357 357 357 353 348 351 353 349 347 345 347 347 347 349 351 352 351 353 352 353 353 353 354 354 354 353 353 352 350 350 349 348 346 343 344 344 343 343 344 344 344 344 344 345 345 345 344 345 345 344 344 344 343 343 342 342 341 341 340 339 339 339 340 340 339 335 333 335 337 339 339 339 340 340 337 335 336 337 337 337 338 338 338 339 339 338 339 338 337 337 337
351 352 353 359 359 358 358 354 355 353 346 349 351 346 345 346 346 347 348 348 350 351 351 353 352 354 353 353 353 354 354 352 352 351 349 350 350 348 344 343 344 345 344 343 344 344 344 343 344 345 345 345 345 344 344 345 345 344 343 342 342 341 340 340 339 339 339 339 340 339 339 335 334 336 337 338 338 338 340 338 335 335 337 336 336 337 337 337 338 338 337 336 337 338 338 337 336
351 354 355 358 359 356 354 352 352 352 347 347 348 345 346 345 345 346 347 348 350 351 352 353 354 355 354 354 354 354 355 352 351 352 351 351 352 349 345 345 346 346 344 343 344 345 345 344 345 346 346 345 344 344 344 345 344 343 343 342 341 340 340 340 339 339 340 340 339 339 339 336 336 336 336 336 337 339 339 335 334 336 337 337 337 338 337 337 338 338 337 336 337 338 337 337 336
353 355 356 357 358 351 348 348 347 347 346 343 344 344 345 345 345 345 346 349 351 351 352 354 354 355 354 355 354 355 355 352 352 354 352 352 353 351 349 350 350 346 343 343 345 345 345 345 346 346 346 345 344 343 344 344 343 343 342 342 341 341 341 340 340 340 340 340 340 340 339 337 337 337 336 336 337 339 336 334 335 337 337 337 338 339 337 336 338 339 338 337 337 337 337 338 336
355 356 355 357 356 349 346 346 342 341 343 341 343 343 344 346 344 346 348 349 352 352 352 353 354 355 355 355 355 355 355 353 354 354 353 353 353 353 353 353 351 345 342 343 343 344 345 346 346 346 346 345 344 343 343 343 342 342 342 342 342 342 342 341 341 341 340 340 340 340 339 337 337 336 335 336 338 338 335 334 337 337 337 338 338 339 337 336 338 339 339 338 337 338 339 339 338
358 358 355 355 352 348 347 344 339 339 344 342 343 343 345 345 344 346 348 350 352 352 351 354 354 354 354 354 354 355 355 354 354 354 354 354 354 354 354 353 350 343 341 342 342 342 343 344 346 346 345 345 344 343 343 342 342 342 341 341 342 342 342 341 341 341 341 340 340 340 338 337 336 334 333 336 338 337 334 335 337 337 337 338 339 339 338 336 338 339 338 338 338 339 340 340 339
357 356 353 353 350 349 347 342 340 340 341 340 341 343 345 345 345 345 347 350 351 352 352 353 352 352 352 353 354 354 354 354 354 354 354 353 353 353 352 352 347 341 341 341 341 341 341 343 344 345 345 345 344 343 342 342 341 341 341 341 342 342 342 342 342 342 341 340 339 338 337 336 335 333 332 335 337 335 334 336 337 338 338 339 338 337 338 337 338 339 338 338 339 339 340 340 339
354 351 351 353 351 349 347 341 337 335 335 337 338 341 345 345 345 344 346 349 349 352 353 353 352 352 352 353 353 353 354 354 354 354 354 353 353 351 350 349 344 341 341 340 341 341 342 343 343 344 345 345 343 342 341 341 341 341 341 341 342 342 342 342 341 341 341 340 339 337 336 335 333 333 334 335 335 334 335 337 338 338 339 339 338 337 338 338 338 338 339 340 340 340 340 339 339
351 348 350 353 350 346 344 341 336 332 334 337 337 341 345 344 344 344 347 349 349 351 352 353 351 352 353 353 354 354 354 354 354 354 354 354 354 353 352 349 344 341 341 341 341 341 342 343 343 343 344 344 342 341 341 340 340 340 340 341 342 342 341 340 340 340 339 339 339 337 336 335 335 335 335 334 334 335 337 337 338 340 340 340 339 338 338 338 338 338 340 341 342 342 342 342 340
348 346 350 353 348 342 341 343 337 333 335 338 338 341 343 344 345 344 347 349 349 350 352 352 349 351 353 353 354 353 354 354 354 354 354 355 354 354 353 350 343 341 341 342 342 342 343 343 343 343 342 342 342 341 341 340 340 340 340 341 342 342 340 340 339 338 337 337 336 337 337 336 336 335 334 335 336 338 339 339 340 341 342 341 340 340 339 339 339 340 341 342 343 344 344 344 344
346 347 353 352 346 342 342 343 337 334 336 336 337 339 342 343 344 346 347 347 349 352 351 351 349 350 353 354 354 353 353 354 354 353 354 355 354 353 353 351 347 343 340 341 342 342 343 343 343 343 343 342 341 341 340 341 340 340 341 342 342 341 340 339 339 338 337 337 337 338 338 337 337 336 336 341 341 340 340 340 340 342 342 342 342 343 342 342 342 342 343 344 344 346 346 346 346
346 351 354 349 346 346 345 342 339 336 335 335 337 339 342 343 344 345 346 346 349 350 349 349 349 352 353 353 353 353 353 353 354 353 354 354 354 354 353 353 352 347 341 341 341 342 343 343 343 343 343 342 342 341 341 341 340 341 342 342 342 341 340 339 338 339 338 339 338 337 338 340 341 341 341 344 343 340 339 339 340 341 342 341 341 345 346 345 346 345 345 345 345 346 347 347 345
346 350 352 347 345 347 344 341 341 338 336 335 338 339 341 343 343 343 343 344 346 346 347 350 352 354 354 353 353 353 353 353 354 353 353 354 354 354 354 354 354 351 345 342 342 342 343 342 343 343 342 342 342 342 342 342 342 342 342 342 341 340 340 339 339 339 339 338 336 336 341 343 343 343 343 344 343 340 339 340 341 341 342 341 341 346 348 346 346 347 347 346 346 345 346 347 344
345 348 351 348 343 344 343 342 342 340 339 336 337 338 338 339 339 340 341 343 343 344 349 351 353 354 353 354 353 353 354 353 353 354 353 353 353 353 354 354 354 351 346 344 344 344 344 343 343 343 343 343 343 343 343 342 342 342 342 341 340 340 339 339 339 340 340 337 335 337 342 344 343 344 343 343 342 340 341 343 344 342 343 342 343 347 348 346 346 345 346 346 345 345 346 347 345
344 345 349 347 342 343 343 341 341 341 341 338 338 336 336 336 336 339 339 342 343 345 350 352 353 353 354 353 353 354 354 354 354 354 354 354 353 353 354 354 353 349 346 346 346 344 344 342 342 343 343 343 343 344 344 342 341 341 341 340 340 340 339 339 339 340 340 339 337 339 342 343 343 344 345 346 345 344 345 347 347 344 345 345 344 346 347 347 346 344 345 345 345 345 345 347 346
343 344 344 342 342 343 341 340 341 342 341 340 340 337 336 335 335 337 339 341 342 345 350 351 352 353 353 353 353 354 354 354 355 355 355 354 354 354 355 355 354 351 348 348 345 345 344 342 343 343 343 344 344 344 344 342 340 341 340 339 340 339 339 338 339 339 341 341 339 341 344 345 345 346 348 349 349 347 346 347 349 347 346 347 346 345 345 347 347 345 346 346 346 347 346 345 345
340 342 342 342 341 341 340 340 340 341 342 342 340 339 337 334 333 336 338 338 340 346 350 350 351 352 352 353 353 354 355 355 355 355 355 355 355 355 355 354 354 352 349 347 346 346 344 343 344 344 344 345 345 344 345 342 339 342 341 340 340 339 339 338 340 341 342 343 341 342 346 348 348 347 348 350 349 348 347 347 349 349 347 348 347 346 346 347 347 347 347 347 347 348 347 344 341
340 340 341 341 340 340 341 341 340 340 341 342 342 341 339 336 335 337 337 338 344 348 350 351 351 351 352 353 353 353 354 355 355 356 355 355 355 355 355 354 352 350 348 347 349 348 345 344 345 345 344 345 346 345 346 343 339 343 343 342 343 341 341 340 340 343 343 343 342 343 347 349 350 349 349 350 350 349 348 348 348 349 347 348 348 347 347 347 347 347 346 347 347 346 346 343 337
339 338 339 341 340 342 341 341 341 339 341 342 342 342 340 338 337 338 338 342 348 350 350 350 350 351 352 352 353 353 354 355 355 355 355 355 355 355 355 354 353 351 349 349 350 350 345 344 346 346 345 345 346 345 345 344 340 344 345 343 344 342 342 343 343 344 345 345 344 344 346 349 351 351 350 350 350 351 349 349 348 346 346 346 347 346 346 346 346 347 345 345 345 343 345 341 333
336 337 338 339 340 341 341 341 342 339 340 342 342 341 341 339 338 338 341 345 349 350 350 350 350 350 351 352 352 353 354 354 354 353 353 354 354 355 355 354 354 353 351 350 350 350 346 344 346 347 346 345 346 345 346 345 341 344 346 344 345 344 345 347 346 347 348 347 345 344 344 348 352 351 350 351 350 351 350 349 348 345 344 344 345 345 345 345 344 345 344 343 344 345 344 339 335
335 336 337 338 338 340 341 342 341 339 340 341 342 341 340 340 339 338 341 346 348 350 352 351 351 351 351 351 352 353 353 353 352 351 351 352 353 353 354 354 354 354 352 352 351 350 348 345 344 346 346 345 346 345 346 347 342 343 348 347 347 347 348 349 349 350 350 349 348 346 344 346 351 352 351 351 350 351 350 348 346 344 344 344 345 345 345 344 344 344 343 343 345 346 343 338 340
335 335 335 335 335 338 340 341 340 339 339 341 341 340 339 340 340 339 342 346 347 350 352 351 352 351 351 351 352 352 352 352 351 350 351 351 353 353 353 354 353 353 353 352 351 350 350 347 342 343 345 344 345 345 345 347 344 344 349 350 348 349 349 350 351 351 351 351 351 350 347 345 348 350 351 351 351 350 349 346 343 343 344 344 344 345 345 345 345 343 343 344 345 345 342 338 339
335 335 333 333 333 334 338 339 339 339 339 341 340 339 340 341 340 338 342 346 347 348 350 350 350 351 351 351 352 351 350 351 350 350 351 350 352 352 352 353 353 353 353 353 351 349 350 348 343 342 344 344 344 344 344 347 346 346 350 350 350 350 350 350 352 352 351 352 352 351 351 348 346 346 346 347 348 347 345 342 342 343 344 344 344 345 346 346 345 344 344 344 344 344 343 341 341
334 334 332 332 331 332 337 338 338 338 338 340 339 336 339 342 341 337 339 344 346 347 347 348 349 349 349 350 351 350 349 350 350 350 350 350 351 351 352 353 352 352 353 354 353 351 349 348 345 342 342 343 343 342 342 346 347 347 349 351 351 351 350 351 352 352 352 352 352 351 352 351 349 346 343 342 344 344 342 341 341 343 346 345 345 345 346 347 346 345 345 344 345 344 343 343 341
332 332 331 331 328 329 336 336 337 337 337 340 339 336 339 343 341 337 336 341 345 346 346 346 347 349 348 348 350 349 349 349 349 350 350 350 350 351 352 352 352 352 353 354 354 352 349 349 347 342 340 340 341 340 340 345 348 347 349 350 351 352 351 350 350 351 352 352 352 351 350 350 348 346 343 341 342 343 342 341 341 343 346 346 345 347 347 346 345 345 345 345 345 344 344 343 341
330 327 327 330 327 328 334 334 336 336 336 339 338 336 340 343 341 339 337 340 344 344 345 346 346 348 347 347 349 347 348 349 349 349 349 349 349 350 351 351 352 352 352 353 353 352 351 351 350 345 340 339 339 339 340 344 347 347 348 348 349 351 350 350 349 350 352 352 352 351 349 347 346 344 341 340 342 344 343 342 341 343 345 346 346 346 346 345 345 345 346 346 346 345 343 341 340
329 327 323 326 327 327 331 333 335 335 336 339 337 338 343 347 343 340 338 339 342 343 344 345 345 347 346 347 349 348 347 348 347 348 348 349 348 349 350 351 352 352 352 353 353 353 353 352 352 349 343 339 338 339 342 346 347 347 347 346 347 348 349 349 348 349 351 352 352 351 349 347 347 345 342 341 342 344 344 342 342 343 344 346 346 345 345 345 345 346 346 346 346 345 342 338 340
325 327 325 326 327 326 327 332 336 335 337 339 339 341 345 347 343 340 340 338 339 341 342 343 344 346 346 345 348 348 347 347 347 347 347 348 348 349 350 350 350 351 352 352 352 353 353 353 353 351 348 343 339 339 345 350 348 348 349 348 347 347 347 348 347 348 351 352 352 352 351 350 348 347 345 344 345 345 345 343 344 344 345 346 346 346 346 346 346 347 347 346 346 347 342 335 335
322 324 324 324 327 327 327 331 336 336 338 339 339 341 344 345 343 341 341 339 339 339 340 342 342 345 345 345 346 347 347 346 346 346 347 347 348 348 349 349 349 351 351 350 351 353 353 352 352 352 351 348 343 340 346 351 349 348 351 351 349 348 348 348 347 348 350 352 352 351 351 351 349 349 348 347 347 347 345 345 345 345 345 346 347 346 346 347 347 346 346 346 345 340 333 329 331
326 326 325 324 325 327 330 333 336 337 337 339 339 339 341 343 343 342 342 342 339 338 340 341 341 343 343 343 346 347 347 346 346 346 347 347 348 348 348 349 349 350 351 350 351 351 352 352 352 353 352 351 348 345 345 347 347 347 348 349 348 347 347 346 346 347 350 351 351 351 350 351 350 350 349 349 349 348 346 346 346 345 346 347 347 345 346 347 346 345 344 342 336 327 327 334 337
329 328 327 326 326 326 332 334 336 338 336 338 341 340 340 344 344 343 342 342 341 340 340 339 341 343 343 343 345 347 348 347 347 346 347 347 348 349 348 349 349 350 351 351 351 351 351 352 352 352 352 352 351 348 346 344 343 342 342 344 343 342 343 344 343 346 351 352 351 352 351 351 351 351 351 350 350 349 346 346 347 346 346 346 346 346 345 343 341 340 337 332 327 328 335 340 340
329 329 326 326 326 327 333 335 336 337 336 337 341 341 341 344 344 343 342 342 342 341 340 339 341 342 342 343 345 346 348 347 348 348 348 348 348 349 349 348 349 350 350 350 351 351 350 351 352 351 352 352 352 350 347 343 339 337 337 338 338 337 339 342 342 344 350 353 352 352 351 352 353 353 352 351 349 347 347 347 347 347 346 346 346 345 341 339 337 332 327 327 330 336 338 338 339
328 328 326 324 327 329 331 335 337 336 336 337 340 341 341 343 343 344 342 341 342 342 343 341 340 342 342 343 344 347 348 348 349 348 348 349 349 350 350 349 349 349 350 350 351 352 351 351 352 352 351 352 353 351 348 344 338 335 335 335 336 336 337 341 342 342 347 352 353 352 351 351 353 353 353 351 348 346 347 347 347 346 345 344 344 341 336 335 333 324 323 330 334 337 338 339 339
328 327 325 323 327 327 325 331 337 337 337 339 341 340 342 344 344 346 343 340 341 342 343 343 342 341 342 342 343 346 348 348 349 349 349 349 349 350 350 350 350 349 350 351 351 352 352 351 351 352 351 352 353 352 349 344 338 335 334 334 333 334 336 340 343 344 347 351 353 352 350 350 351 352 352 350 348 348 347 346 346 344 342 341 339 334 331 330 327 322 326 331 333 337 339 340 340
327 328 326 325 328 328 326 331 335 336 336 339 340 335 338 344 345 346 344 342 342 341 341 344 343 342 342 342 343 344 347 348 349 350 349 350 350 350 350 350 350 350 351 351 351 352 353 352 351 351 351 351 352 353 349 343 340 337 335 337 337 338 342 347 349 349 350 351 352 352 351 350 351 351 350 348 349 349 345 344 344 341 339 337 333 332 330 328 326 328 332 332 332 338 339 339 339
323 328 330 328 329 330 331 332 332 331 331 337 337 329 333 343 343 345 345 345 345 343 343 342 342 344 343 343 343 343 345 346 348 350 349 350 350 350 350 350 351 351 350 351 351 351 352 352 353 351 350 350 351 352 350 344 341 338 337 340 340 342 349 353 352 351 352 351 351 351 351 351 352 351 349 348 349 346 342 341 341 338 336 333 331 332 329 326 329 333 336 335 334 337 339 340 339
319 326 330 331 330 330 331 330 328 327 328 337 337 332 333 338 339 345 345 345 347 346 347 344 342 345 344 343 344 343 345 345 347 349 350 350 349 350 351 351 351 351 350 351 351 351 352 353 353 352 351 350 349 350 350 345 341 339 338 339 339 342 349 353 351 350 351 351 350 351 351 351 351 350 348 348 345 342 340 340 338 336 334 331 331 330 328 331 336 337 337 336 335 335 337 339 338
319 326 330 330 330 330 330 328 326 328 332 336 335 335 335 333 338 346 346 345 347 346 349 346 343 344 344 344 345 344 345 345 346 348 350 350 349 349 350 351 351 351 350 351 352 352 353 353 353 353 352 350 349 348 348 345 339 338 338 338 340 343 346 350 350 350 351 352 351 352 350 350 350 349 348 346 343 341 340 339 337 335 332 331 330 327 328 335 340 339 337 334 333 333 334 336 336
323 328 329 330 331 330 331 329 325 329 330 328 332 333 332 332 341 347 345 345 346 346 347 347 345 344 344 344 345 346 345 345 346 347 347 348 348 348 348 350 351 351 351 351 352 352 352 353 353 353 352 351 350 348 347 344 339 337 338 339 341 344 346 348 349 350 352 352 352 351 350 349 349 349 347 345 342 341 341 339 336 334 332 332 333 330 329 334 339 340 339 337 334 330 330 333 335
325 328 328 329 330 330 332 329 326 326 325 324 329 330 328 331 339 344 343 342 344 346 347 346 346 344 344 343 344 345 345 346 345 345 346 346 347 348 348 350 350 351 351 350 351 352 352 353 353 353 353 352 350 348 346 344 340 338 338 338 340 343 345 347 348 349 350 350 351 350 350 350 350 349 347 345 342 340 340 338 335 334 332 333 337 334 328 331 337 339 337 336 335 330 327 330 335
326 327 327 326 328 330 332 331 328 324 322 325 329 330 329 329 335 340 342 342 343 346 347 346 346 345 345 344 343 345 345 346 346 346 346 346 347 348 348 349 350 351 351 351 351 351 351 352 352 353 353 352 352 349 346 344 342 339 339 339 340 341 343 345 347 347 348 349 350 350 350 350 350 349 347 344 342 340 339 335 334 334 333 334 338 334 329 333 337 336 332 330 329 327 327 328 331
326 326 325 322 322 325 325 327 327 322 320 325 330 330 327 326 333 340 343 346 344 345 347 346 346 345 346 345 343 344 345 345 347 347 346 346 347 348 348 349 350 351 352 352 351 351 352 352 352 353 353 353 353 351 348 345 343 342 340 340 340 341 342 343 345 346 346 348 350 350 350 349 349 349 347 344 341 340 338 333 333 335 335 336 337 333 333 337 338 335 334 332 328 326 328 329 327
325 325 322 318 317 320 320 321 323 322 322 325 328 327 324 326 338 343 343 345 344 343 344 344 346 345 346 347 345 344 345 345 346 347 348 348 348 348 348 349 349 351 352 352 352 352 352 352 352 353 354 354 353 352 350 346 344 343 342 341 341 341 342 342 344 345 345 348 350 349 349 348 348 348 346 343 340 340 338 333 332 336 338 337 336 334 334 337 337 336 336 336 332 326 326 329 326
324 321 319 317 317 319 320 321 321 322 324 325 327 327 321 324 336 344 343 344 343 342 342 342 344 345 345 346 346 346 345 345 346 347 347 348 349 349 349 349 350 351 351 352 353 353 353 353 353 353 354 355 354 352 351 349 346 345 343 342 341 341 342 343 344 344 345 348 349 348 346 344 343 343 341 339 339 339 338 333 331 334 338 338 336 336 334 332 335 337 335 336 334 326 323 325 325
324 324 322 319 318 319 319 321 320 321 324 325 325 325 321 324 337 344 342 342 342 341 342 343 343 344 345 345 346 347 346 346 346 346 347 348 349 349 349 350 350 351 352 352 353 354 354 354 354 355 354 355 356 354 353 351 349 347 345 343 341 341 342 343 344 345 344 347 348 347 345 343 340 338 336 336 338 340 337 334 332 333 337 339 336 334 330 325 330 337 336 336 335 327 321 323 324
324 326 322 318 320 321 320 322 322 320 323 323 322 324 328 335 346 348 340 341 342 341 342 342 342 343 344 345 346 346 346 346 345 346 347 348 349 349 350 350 350 351 352 353 355 355 355 355 355 355 355 355 356 356 354 353 351 349 347 344 341 341 342 343 344 344 344 345 347 345 343 341 339 335 334 336 339 340 339 336 335 335 336 336 331 326 323 319 326 335 334 334 333 325 320 322 322
323 322 319 320 325 325 320 320 322 321 321 323 321 323 329 333 340 344 342 341 342 342 343 342 341 342 343 345 346 345 345 346 345 346 347 347 349 349 350 351 351 352 353 353 355 355 356 356 355 356 356 356 357 357 356 355 353 352 349 345 342 341 341 342 343 343 343 345 345 344 341 339 337 334 333 337 340 341 340 337 336 337 335 330 323 320 318 317 323 332 332 331 329 322 321 324 322
323 319 320 325 327 326 322 319 320 321 320 321 321 322 325 326 332 341 343 341 341 342 343 342 342 342 343 345 345 345 346 346 346 346 347 348 349 350 350 351 352 352 353 354 355 356 356 357 357 357 357 358 357 358 358 356 355 355 352 346 343 342 341 341 342 342 342 344 344 343 341 338 336 335 334 337 341 341 338 336 337 338 334 325 320 318 318 317 320 327 328 328 326 322 323 325 323
325 322 325 326 321 319 320 318 319 320 319 319 320 321 323 325 331 339 341 340 341 342 341 341 343 343 344 345 346 345 346 347 347 347 347 347 348 349 350 351 352 353 354 354 355 356 357 357 358 358 358 358 358 358 359 358 357 356 353 348 343 341 341 341 341 342 342 342 343 342 340 338 336 337 338 339 340 339 336 336 337 337 334 326 320 317 318 318 318 321 323 323 322 321 322 323 323
326 326 326 325 321 319 319 319 319 320 320 320 321 321 324 332 338 340 342 344 341 342 343 341 342 343 344 345 346 346 346 347 348 348 347 348 347 348 349 350 352 353 354 355 355 355 357 357 358 359 359 360 360 359 359 359 358 357 355 351 345 342 341 341 341 341 342 342 342 340 339 338 337 337 339 340 341 338 335 336 337 337 335 330 323 318 318 319 318 319 320 319 319 320 320 321 324
323 322 321 321 322 322 321 319 318 319 320 321 322 320 324 338 345 341 345 346 342 342 343 342 340 341 342 344 345 346 346 346 347 347 347 346 346 347 348 349 351 353 354 355 355 356 356 357 358 359 360 360 360 360 359 359 359 357 356 352 347 344 341 341 342 342 342 342 341 340 339 338 337 338 339 340 340 339 338 338 337 337 337 333 327 321 318 319 320 319 319 319 319 319 319 320 323
324 322 320 320 321 319 318 318 319 318 318 320 321 320 328 342 343 340 345 346 342 341 342 341 340 339 340 342 342 344 345 345 345 345 345 345 345 347 349 350 351 352 354 354 355 356 356 357 358 358 359 360 360 360 359 359 359 358 356 352 348 344 342 342 343 342 342 342 341 340 339 337 337 338 339 339 340 341 341 340 339 337 337 335 330 324 319 319 319 319 320 320 319 319 319 320 322
Wind_Speed
7 11 11 7 5 4 1 1 1 2 2 1 3 1 2 5 4 4 7 10 8 10 17 17 16 13 12 12 15 18 17 5 3 4 7 14 23 21 22 23 22 23 25 26 26 26 26 25 25 26 25 26 26 25 25 25 24 25 26 25 25 25 24 22 21 20 19 18 17 17 17 17 17 17 17 16 16 16 15 14 13 13 13 13 13 13 13 13 12 12 13 13 12 12 13 12 13
8 12 10 5 4 1 1 1 1 1 1 1 2 0 1 5 4 3 7 10 9 17 23 23 21 19 19 20 21 21 19 12 15 20 21 25 25 20 22 23 23 26 27 27 27 27 27 26 26 25 25 25 25 25 25 24 24 24 25 25 24 23 22 21 20 18 17 16 16 16 16 16 16 16 16 15 15 15 14 13 13 13 12 12 12 12 12 12 12 12 12 12 12 12 12 12 13
6 9 9 6 4 3 3 1 0 2 1 1 1 2 4 5 5 4 12 16 18 24 25 22 19 18 20 17 16 17 10 14 28 33 28 27 25 23 23 24 26 27 27 27 27 28 29 28 26 26 26 25 24 24 24 23 23 23 23 23 23 21 20 19 18 17 16 15 15 15 15 15 15 15 15 14 14 13 13 13 12 12 12 12 12 12 11 11 11 12 12 12 12 12 12 12 12
3 5 7 6 3 2 1 0 1 2 2 1 0 4 4 5 8 9 17 19 20 23 21 20 16 17 21 17 14 16 12 14 27 33 29 27 27 26 25 26 28 27 28 27 27 28 29 28 27 26 25 25 25 24 24 22 22 22 22 22 21 20 19 18 17 16 16 15 15 15 15 15 14 14 14 13 12 12 12 12 12 12 12 12 12 11 11 10 11 12 12 12 12 12 12 12 12
2 4 7 5 3 1 1 1 2 0 2 2 1 3 6 7 11 12 15 20 20 20 19 18 14 17 21 17 12 13 15 17 21 27 29 27 27 27 27 29 29 28 28 27 27 27 28 27 26 25 24 24 24 25 24 22 21 21 21 21 20 19 18 17 16 16 16 15 14 14 14 14 13 13 12 12 11 11 11 11 11 11 11 11 11 10 10 9 10 11 12 11 11 12 12 13 12
5 7 10 6 1 2 0 1 3 2 5 3 2 3 5 9 12 13 16 19 21 21 21 20 18 19 18 16 16 16 18 20 22 26 30 30 28 28 28 30 29 29 28 28 27 27 27 27 26 25 24 23 23 23 22 21 20 20 20 20 19 18 17 17 16 16 15 15 14 14 13 13 13 12 12 11 10 10 10 10 10 10 11 11 10 10 9 9 10 11 12 11 11 12 13 13 12
9 8 10 7 5 3 1 2 4 4 7 6 3 3 8 11 15 18 15 16 20 20 22 24 22 19 13 14 17 15 16 22 29 29 31 32 30 28 29 30 29 29 28 28 27 27 27 27 27 25 24 23 22 21 20 20 19 20 20 19 19 18 17 17 16 16 15 14 14 13 12 12 11 11 11 10 9 10 9 9 9 10 11 11 10 10 10 11 11 11 12 12 12 12 13 13 13
12 7 7 4 2 1 2 4 5 6 6 6 4 3 11 13 16 17 14 14 16 16 22 24 23 18 11 14 15 16 17 23 31 30 32 32 29 29 29 30 29 29 28 28 27 27 26 25 25 24 22 21 20 21 20 20 20 20 19 19 18 18 18 17 16 16 15 14 13 12 11 11 10 10 9 9 9 9 9 8 9 11 11 11 11 11 11 11 11 11 12 12 13 12 12 12 13
13 7 4 2 1 2 3 4 6 9 7 9 5 4 12 13 11 13 15 15 16 19 22 20 22 20 13 18 17 20 21 23 31 30 32 32 30 29 29 30 28 28 28 28 27 26 26 25 23 22 21 20 20 20 20 21 20 20 19 19 18 18 18 17 16 15 14 13 12 11 10 10 9 9 8 8 8 8 8 8 9 10 10 11 11 11 12 11 11 11 11 12 12 12 12 12 12
12 9 4 2 3 3 5 6 6 7 8 8 6 7 10 11 9 12 16 16 18 19 21 22 24 24 19 18 17 22 23 26 33 31 31 32 31 29 28 29 26 27 28 28 28 27 26 24 23 22 21 20 19 19 20 21 20 20 19 18 17 17 17 16 15 13 13 11 11 10 9 9 8 8 7 7 8 8 7 8 9 9 10 10 11 12 12 11 11 11 11 11 12 12 12 12 12
8 8 5 2 2 3 4 7 4 6 7 5 7 9 10 9 8 15 20 17 21 22 23 24 22 25 22 17 18 24 26 27 31 32 31 29 29 28 28 29 27 26 29 29 27 27 25 24 23 22 21 20 19 19 20 20 20 20 18 18 17 16 15 14 13 12 12 11 10 10 9 9 7 6 6 6 7 7 7 8 8 8 9 10 10 11 11 10 10 11 11 12 13 13 13 13 12
4 4 4 2 3 4 4 7 4 6 8 6 6 8 11 8 8 15 19 17 22 22 20 20 19 23 18 14 22 27 28 27 28 30 30 29 29 29 29 29 27 26 28 28 27 26 25 24 23 22 21 20 19 19 19 20 19 19 18 17 16 15 14 13 13 11 11 10 10 10 9 8 7 5 5 6 7 7 6 7 7 8 9 9 10 11 10 10 11 11 12 13 13 13 13 13 13
6 2 2 2 3 4 6 8 3 7 5 5 5 8 11 9 10 14 18 20 20 17 18 23 25 22 16 15 24 29 28 27 28 27 28 29 29 29 30 28 25 27 28 27 27 26 25 24 23 22 21 20 19 19 19 19 19 18 18 17 16 15 14 13 12 11 11 10 10 9 9 7 6 5 5 6 7 7 6 6 7 8 9 10 10 11 11 10 12 13 13 13 13 13 13 13 13
10 4 2 3 3 5 6 7 3 7 3 6 7 10 11 8 11 14 19 19 14 18 23 27 29 23 18 18 21 27 28 28 29 28 27 26 26 27 27 26 25 27 27 26 26 25 24 23 22 22 21 20 20 19 19 18 18 18 17 17 16 14 13 13 12 11 10 10 9 9 8 7 6 5 5 5 6 6 5 6 7 8 9 10 11 12 11 11 13 14 14 14 13 12 12 12 12
13 8 3 2 4 6 5 5 2 8 4 5 8 13 15 10 10 12 20 19 14 25 26 26 27 20 17 18 19 27 30 30 31 30 29 27 25 25 24 24 26 28 26 25 24 23 23 23 22 21 21 21 20 20 19 19 18 17 17 16 15 14 13 12 12 11 10 9 9 9 9 8 7 6 5 5 5 5 5 6 7 8 9 10 11 11 11 12 13 13 13 13 12 11 10 10 10
14 10 1 2 4 4 4 5 3 7 3 5 7 13 15 11 12 13 21 22 20 26 24 22 21 18 23 23 26 32 31 31 32 31 31 29 27 27 24 24 26 27 26 24 23 23 22 22 21 21 21 20 20 20 19 19 18 17 16 15 14 14 13 12 12 11 11 10 10 10 9 8 7 6 5 5 5 4 4 5 6 8 10 10 11 12 11 12 11 11 11 11 11 10 9 8 9
13 8 1 3 4 4 4 4 2 6 5 5 9 12 9 9 15 19 23 23 24 22 19 20 19 24 30 26 31 35 33 32 32 32 32 32 31 30 28 25 25 26 26 25 22 22 21 21 21 21 21 20 19 19 19 19 17 16 15 15 14 13 13 12 12 12 11 11 11 10 9 8 7 6 5 5 4 4 5 5 7 8 9 9 10 12 11 11 10 9 10 11 10 9 8 8 8
11 4 2 4 3 4 4 5 2 7 8 5 10 14 10 9 16 21 21 21 25 20 18 24 22 27 30 30 35 35 34 34 33 35 35 35 34 32 31 28 26 26 26 25 23 22 21 21 21 21 21 20 20 19 18 18 17 16 15 14 13 13 13 12 12 12 11 11 10 9 9 8 7 6 4 4 4 4 5 6 7 8 8 9 9 10 10 10 9 9 9 9 9 8 7 7 7
10 3 3 4 4 5 6 9 7 3 7 8 12 15 13 12 14 16 14 16 22 17 18 26 27 29 32 35 35 34 35 34 33 35 35 35 35 34 33 31 29 27 26 27 25 23 21 21 21 21 21 20 19 19 18 17 16 15 14 13 13 13 12 12 12 11 10 10 9 9 8 7 6 5 3 3 3 3 5 5 6 7 7 8 8 8 9 8 8 8 8 9 8 6 7 7 7
12 7 3 5 7 8 11 15 11 1 7 8 11 15 15 14 14 14 13 15 15 13 20 24 27 32 35 36 36 35 35 33 34 33 33 33 32 33 34 34 32 29 28 27 25 23 22 22 22 21 21 20 19 18 17 16 16 15 14 14 13 13 12 12 11 11 10 9 9 9 7 6 5 5 4 2 2 2 3 4 4 6 6 6 7 5 7 7 6 5 6 7 7 6 6 7 7
12 10 5 8 11 8 10 13 13 4 9 5 8 14 15 15 14 15 16 13 8 15 28 29 31 36 36 38 37 36 34 34 34 32 32 31 30 31 31 32 30 29 29 27 25 24 23 23 22 22 20 19 18 18 17 16 16 15 15 14 13 13 12 12 11 10 10 9 9 8 7 6 4 5 4 2 2 2 3 3 2 4 4 3 4 3 4 5 4 4 5 5 5 5 6 7 7
10 11 13 16 11 3 6 10 15 6 10 6 5 7 13 18 13 18 21 11 9 22 35 37 37 39 39 39 37 36 36 35 34 33 32 31 30 29 29 30 28 28 28 27 26 24 24 23 22 22 20 19 18 17 17 16 16 16 15 14 14 14 12 12 11 10 9 8 8 8 7 6 4 5 5 2 1 1 1 1 2 2 4 3 3 2 2 3 3 4 4 4 4 4 6 6 6
8 9 18 21 11 7 6 13 16 8 11 8 6 5 13 15 8 18 24 14 20 35 39 41 39 39 40 39 38 36 36 35 34 33 32 32 31 30 29 30 30 29 28 26 25 25 24 24 22 22 21 20 18 17 17 16 16 15 14 14 14 13 12 12 11 10 9 8 8 8 7 6 4 4 4 3 2 2 2 2 2 1 2 2 3 3 3 3 3 3 3 3 3 3 4 5 6
11 6 13 18 15 13 9 14 16 12 13 9 9 9 10 10 5 11 16 15 30 42 40 41 40 39 38 37 37 36 36 35 34 33 33 32 31 30 29 28 29 29 28 26 26 26 25 24 23 23 21 20 19 18 17 16 16 15 14 14 13 12 12 12 11 10 9 9 9 8 8 7 5 4 3 4 4 3 3 3 3 2 2 2 2 1 3 3 3 3 3 2 2 3 3 4 4
13 10 12 14 17 19 14 12 18 14 14 14 13 10 9 10 8 6 12 27 38 41 39 39 39 38 37 36 37 36 35 34 32 32 32 31 30 29 28 27 27 27 28 27 27 26 25 25 24 23 22 21 19 19 17 16 17 15 14 13 13 12 11 11 10 9 9 9 10 10 8 7 6 4 4 5 5 5 4 4 4 4 3 4 4 3 3 3 3 4 4 4 4 5 4 4 5
11 16 18 14 16 21 19 14 18 12 12 17 14 9 8 9 10 6 20 39 39 40 38 37 38 37 35 35 36 36 36 34 32 32 31 30 29 29 28 28 28 27 27 27 27 27 25 25 25 24 23 21 20 19 18 17 17 16 14 13 13 12 12 11 11 9 8 8 9 10 10 9 8 6 5 6 7 7 7 6 5 5 4 5 5 4 3 4 4 3 5 5 5 5 3 6 9
17 16 20 18 17 20 22 19 18 13 14 20 13 8 12 13 9 4 22 40 38 41 38 36 37 35 35 34 34 36 35 34 33 32 31 30 30 30 30 29 29 27 26 26 27 26 25 25 25 24 23 22 21 20 19 17 17 17 14 13 13 13 12 12 11 10 8 7 8 9 9 10 10 9 7 8 9 9 9 8 7 7 5 4 4 3 4 5 5 4 5 5 4 3 4 9 10
24 19 13 12 11 13 20 18 17 15 14 22 16 9 14 15 8 5 26 40 38 40 37 35 35 32 33 32 33 35 34 34 33 33 32 32 32 31 31 31 29 28 27 27 26 26 26 26 25 24 23 23 22 20 19 18 18 17 15 14 14 14 13 12 11 10 9 8 8 9 8 10 12 13 11 10 11 10 9 7 6 6 5 5 4 4 5 5 5 5 4 4 3 3 5 7 7
22 18 10 8 11 8 16 16 18 15 13 26 20 8 12 11 8 13 32 38 37 39 36 34 33 32 33 31 33 34 34 33 33 34 32 33 33 31 32 31 30 29 28 26 25 27 27 27 26 24 23 23 23 21 20 19 18 18 16 14 14 14 14 14 12 11 10 9 10 10 9 9 12 14 13 12 12 11 9 7 6 6 5 5 5 5 5 5 6 5 4 4 2 5 5 5 5
17 13 6 6 10 7 14 17 19 15 14 30 21 4 8 9 10 20 31 33 36 35 33 33 32 33 32 32 34 33 33 33 34 34 32 32 32 31 31 30 29 30 29 27 25 26 27 27 26 25 25 24 24 23 21 20 18 18 18 16 15 14 14 15 14 11 10 11 11 11 11 11 11 12 12 11 11 9 9 7 6 5 5 6 5 5 5 5 6 5 5 4 4 7 4 4 3
9 8 5 4 5 4 8 12 14 12 16 31 20 2 7 9 13 24 28 29 35 32 31 33 30 33 32 31 35 34 32 33 34 33 32 32 31 30 30 30 30 30 30 29 27 26 27 28 26 26 26 25 25 24 22 21 20 19 19 18 17 15 15 16 16 14 13 13 14 13 13 12 11 11 11 10 9 8 8 8 7 6 6 7 6 5 6 6 6 5 5 3 6 7 4 3 3
5 6 6 3 3 6 8 9 10 8 13 27 17 2 7 8 11 26 29 28 35 32 30 33 30 32 32 30 35 35 31 31 33 32 32 33 32 30 30 30 31 30 30 30 29 27 27 28 27 26 26 26 27 25 23 22 21 20 19 19 19 18 17 16 16 17 17 17 16 15 13 12 11 11 11 10 9 8 8 8 8 7 7 7 6 5 6 6 5 5 5 4 7 6 4 4 4
5 6 5 4 5 6 8 9 12 10 9 17 13 3 5 6 7 21 31 28 31 30 29 32 31 32 32 30 34 34 31 30 32 32 31 33 32 32 31 30 31 30 30 30 30 28 27 28 27 27 26 25 26 26 24 22 22 21 19 18 18 18 18 16 16 17 16 16 15 13 12 10 10 10 10 10 9 8 8 8 9 9 8 7 5 4 5 6 6 5 5 5 5 5 6 6 4
5 5 5 7 9 7 7 7 11 13 9 11 11 6 5 7 6 14 27 29 26 27 29 32 31 32 33 31 33 34 32 32 33 33 32 33 32 32 32 30 31 32 30 29 29 29 28 28 28 26 25 23 25 27 25 23 22 21 19 18 18 18 18 17 17 16 16 14 13 12 11 10 8 7 8 8 8 8 9 8 9 9 8 6 4 4 5 5 4 4 5 5 5 5 5 5 5
7 7 5 7 10 9 8 5 7 9 10 12 10 8 7 10 10 14 26 30 24 23 29 31 32 34 34 32 33 34 34 34 34 34 32 33 34 32 32 31 32 33 31 29 29 30 29 29 29 27 25 23 23 27 28 25 23 22 21 21 20 19 18 17 17 17 16 16 14 13 13 12 10 8 7 8 7 8 8 8 9 9 7 5 4 5 5 3 3 4 4 5 4 4 5 4 2
12 11 8 8 8 7 10 8 9 9 8 10 11 9 8 11 11 12 24 30 24 23 28 29 30 33 35 34 34 35 35 35 35 34 32 33 35 34 33 31 32 32 30 28 28 31 31 30 30 29 27 24 23 26 29 28 26 24 24 24 23 21 19 17 17 16 14 14 15 15 15 14 11 9 8 8 8 8 8 9 10 9 7 5 5 5 4 4 4 4 4 4 5 4 1 3 2
14 13 11 10 7 7 12 11 12 12 7 8 10 11 9 10 9 10 23 28 21 21 24 25 28 32 35 33 33 36 36 36 35 34 33 33 33 34 33 32 32 31 30 29 29 31 32 32 32 31 29 26 24 26 29 30 29 27 26 25 24 22 19 17 17 16 14 13 15 16 16 15 13 11 9 8 9 9 10 11 11 9 7 5 6 6 5 4 3 4 5 4 2 4 7 5 3
14 12 11 9 8 8 12 9 14 16 8 8 11 11 9 10 9 9 19 21 15 20 22 22 27 31 34 34 34 37 36 35 34 34 34 33 33 33 32 33 34 33 33 32 32 32 33 33 33 32 31 29 27 27 27 29 30 28 26 25 23 22 20 18 17 17 17 15 16 17 17 16 13 11 10 9 9 10 11 11 10 8 6 7 8 7 4 3 5 6 6 5 8 10 8 4 3
11 10 9 9 8 7 11 9 12 15 7 7 12 11 7 10 11 8 13 16 16 25 28 27 30 31 33 35 34 36 36 34 35 37 36 34 35 34 33 35 36 36 35 34 34 33 34 35 34 34 33 32 29 28 27 27 28 27 25 24 23 22 21 19 17 17 18 17 17 17 16 15 13 11 11 11 10 10 10 9 10 9 7 8 8 6 5 5 5 3 6 9 10 10 7 4 2
10 9 8 9 9 8 9 7 6 11 9 8 11 10 6 8 10 7 11 17 20 28 32 32 34 33 35 38 37 37 37 37 37 38 39 37 36 36 37 37 37 38 37 36 36 36 35 36 37 37 36 34 31 30 29 25 25 26 24 23 22 22 20 18 16 16 17 19 18 17 16 14 12 11 11 12 11 11 10 9 10 9 8 8 6 5 5 3 1 4 7 9 10 9 7 5 2
11 13 11 9 10 12 10 9 7 7 9 10 11 7 4 7 10 7 10 14 15 23 29 29 33 36 37 39 38 38 39 40 39 40 40 40 39 39 40 39 39 39 39 39 39 39 38 37 37 38 38 36 33 32 30 26 24 25 25 23 22 21 18 16 15 15 17 19 20 19 16 12 10 10 11 11 12 12 11 9 10 9 7 6 5 5 3 1 4 7 5 6 9 7 7 7 4
10 15 17 14 12 13 12 13 9 3 5 5 8 5 4 6 11 10 9 9 9 14 18 21 28 34 35 36 37 38 39 41 42 42 42 41 41 40 41 41 41 41 41 41 41 40 39 37 37 37 39 39 37 35 32 29 27 27 27 26 24 22 21 19 18 17 17 19 19 18 15 12 11 11 11 12 13 13 10 9 9 8 6 5 5 5 3 4 7 9 5 4 8 7 8 9 7
8 11 16 18 17 16 14 15 10 3 5 7 8 5 3 5 9 10 11 12 12 10 9 13 23 30 32 34 37 39 39 40 42 42 42 42 42 42 42 43 44 43 42 42 41 40 40 39 38 38 38 39 39 38 35 32 30 29 29 29 26 24 24 24 21 18 17 17 17 16 15 13 12 13 13 13 13 12 10 9 9 8 6 5 4 4 7 9 8 8 6 6 7 8 10 11 10
8 9 13 17 19 20 18 15 10 3 5 10 13 9 4 4 7 9 12 14 14 12 10 11 17 27 32 34 37 40 40 40 41 42 42 44 44 44 44 45 45 44 43 42 42 42 41 41 40 39 39 39 39 39 37 35 32 30 30 29 27 25 25 25 23 20 17 16 16 15 14 13 13 13 14 15 13 11 11 10 9 8 7 5 3 5 10 12 10 9 9 7 6 8 10 11 11
9 10 12 14 17 19 17 13 9 6 4 6 11 10 5 4 6 8 11 13 13 14 15 12 14 24 31 33 35 39 41 40 41 42 43 44 45 45 45 45 45 44 43 43 43 43 43 42 41 40 39 39 39 39 39 37 34 31 30 29 29 27 25 25 25 23 20 18 17 15 14 14 13 13 13 15 13 12 12 10 9 9 7 7 6 8 11 11 11 12 11 8 7 8 10 11 11
9 12 13 12 12 14 14 11 8 7 6 6 9 11 6 3 6 7 8 10 12 13 14 13 14 21 28 32 33 36 40 41 41 43 43 43 44 44 45 44 44 44 44 43 43 43 43 42 42 41 40 40 39 39 39 38 36 33 31 30 29 29 27 26 26 25 24 22 19 16 16 16 16 15 14 15 14 12 13 11 11 10 8 9 8 8 11 12 11 10 10 10 10 10 11 12 12
9 11 12 11 10 9 8 8 6 6 6 6 9 14 10 5 5 8 8 9 11 11 11 13 16 21 27 32 35 35 38 40 41 43 44 43 43 43 44 45 45 45 44 43 43 44 44 43 43 42 41 41 41 40 39 38 37 35 34 31 30 29 28 28 27 26 25 23 21 20 19 19 19 18 16 16 15 13 13 13 12 11 10 11 10 9 11 12 10 8 6 7 9 11 12 14 13
10 8 8 7 7 6 6 5 5 7 7 6 8 12 12 7 6 8 10 11 14 12 12 15 17 22 27 32 35 36 37 39 40 42 43 43 42 42 44 45 45 46 45 44 44 44 44 44 44 43 42 42 42 41 40 39 38 37 36 33 31 30 29 29 28 26 25 24 23 23 22 22 21 20 18 18 17 15 15 14 13 11 12 13 12 11 11 13 12 10 7 6 7 11 13 13 13
10 7 5 6 6 5 6 5 4 6 7 7 8 9 9 7 6 12 14 14 15 14 14 18 21 25 31 33 35 36 37 38 39 40 43 44 43 43 45 46 46 47 47 46 45 44 45 45 45 44 43 42 42 43 42 40 39 38 37 35 33 31 30 30 29 28 25 24 26 27 26 25 25 23 22 20 19 17 16 15 14 13 14 14 14 13 13 14 15 13 11 8 7 11 13 14 13
10 8 6 6 6 6 6 5 4 5 5 7 11 10 7 6 5 14 18 15 17 18 20 24 28 32 35 34 35 36 37 38 39 40 41 45 46 45 46 47 48 48 49 48 46 45 45 45 45 44 44 43 43 43 43 42 41 39 38 36 34 32 31 30 30 29 27 26 27 28 28 27 26 24 23 21 19 18 16 15 14 15 15 14 14 14 15 16 17 16 14 11 9 10 13 15 14
10 9 7 6 6 6 6 5 4 4 4 7 13 10 5 5 7 14 17 17 21 25 27 28 31 36 39 38 38 38 38 38 39 41 41 43 47 47 47 49 50 50 50 49 48 47 46 46 46 46 44 44 44 44 44 43 42 40 39 37 36 34 32 31 31 31 29 28 28 28 27 26 24 23 23 22 20 18 16 14 15 16 17 16 15 14 14 17 20 19 15 13 11 11 14 16 16
7 6 7 9 9 5 4 4 4 4 4 5 7 6 4 4 7 11 15 16 19 21 25 27 27 32 38 40 41 41 39 37 38 41 42 43 46 48 48 49 50 51 50 50 49 48 48 47 47 46 45 44 44 44 44 44 43 42 40 38 37 36 34 32 32 32 32 31 30 29 27 25 23 22 23 23 21 19 18 16 16 17 18 18 16 14 14 18 21 20 17 15 13 13 15 16 17
3 7 10 8 7 6 4 4 4 4 6 5 3 4 3 4 5 5 10 15 16 15 18 21 24 28 31 35 38 38 37 39 41 42 41 41 44 48 49 49 50 51 51 51 51 50 49 48 47 47 45 45 45 45 45 44 44 43 42 40 38 37 36 34 33 33 33 33 32 30 28 25 24 24 24 24 22 21 20 18 18 18 18 18 16 15 15 18 21 22 19 17 15 15 14 15 17
4 6 7 2 1 4 3 3 4 4 6 5 4 6 5 5 5 4 9 14 16 15 14 15 19 23 26 31 37 39 38 40 43 43 42 41 41 45 49 49 49 51 51 51 51 50 49 48 48 47 46 46 46 45 45 45 45 44 43 42 39 38 37 35 34 34 34 34 34 32 29 27 26 25 25 25 24 23 22 21 21 20 19 18 16 16 16 17 21 23 22 20 18 17 16 16 17
9 5 3 3 4 5 4 4 4 5 6 4 5 8 7 6 5 6 11 14 15 16 15 14 14 15 21 30 38 41 40 40 42 44 44 43 42 44 47 49 49 49 50 50 50 49 48 48 47 46 46 46 45 45 46 45 45 45 45 43 40 39 37 37 36 35 35 35 35 33 31 29 28 27 26 25 25 25 25 24 23 22 20 18 16 16 16 16 19 22 24 22 20 20 20 17 17
10 8 5 5 5 5 6 5 3 4 5 4 6 8 6 5 6 8 10 13 16 16 15 15 12 15 23 29 35 40 41 40 42 44 44 45 46 46 48 49 49 48 48 48 48 48 48 48 47 46 45 45 45 45 46 46 46 45 45 44 42 40 39 38 37 37 37 37 36 34 33 31 30 29 28 26 26 26 27 26 24 24 23 20 17 16 16 17 18 20 22 22 22 23 22 20 18
10 9 9 8 4 3 6 6 6 5 4 4 5 6 5 5 5 8 9 10 13 15 16 16 14 21 31 34 36 41 43 43 44 45 45 46 46 47 48 48 48 47 47 47 47 49 49 49 48 47 46 46 46 46 46 46 46 45 45 45 43 42 40 39 38 38 38 38 37 36 34 33 32 31 30 29 28 28 28 27 26 25 25 22 18 17 18 18 19 20 21 21 22 23 23 22 20
11 9 10 11 6 4 5 6 7 8 6 5 5 4 6 5 5 8 10 9 11 13 15 15 16 23 32 37 40 44 46 46 47 48 47 47 46 47 47 47 47 47 47 47 48 49 50 50 50 49 47 47 47 47 47 46 46 46 46 46 45 43 42 40 39 39 39 38 38 37 36 35 35 33 31 31 30 29 29 28 27 26 26 24 21 20 20 20 21 21 21 21 22 23 24 23 22
Wind_Direction
127 147 151 170 143 99 60 339 290 214 196 290 256 329 140 155 106 127 139 146 148 124 118 128 141 122 116 111 97 70 43 57 142 114 135 151 151 148 150 152 151 149 146 143 141 142 141 142 141 138 136 135 133 133 135 137 139 140 139 136 135 133 131 129 128 126 124 122 118 116 114 113 114 113 112 110 108 105 102 99 94 85 78 76 72 68 67 64 61 60 58 56 55 57 61 64 66
117 142 146 156 147 151 308 331 251 271 153 244 258 25 94 99 93 209 134 110 98 100 101 107 113 102 103 100 93 77 45 53 109 116 124 143 148 147 149 151 152 148 145 142 142 142 142 144 144 140 138 136 134 135 137 139 142 144 143 141 139 137 134 132 131 129 127 124 121 118 116 116 115 114 112 110 108 106 104 99 91 81 76 73 69 67 65 64 61 59 56 54 53 53 57 61 63
124 142 135 139 162 245 280 279 211 339 345 166 268 127 102 116 180 191 102 99 97 98 98 102 103 100 97 84 77 89 77 78 110 120 127 143 146 146 150 152 152 147 144 142 142 143 144 147 146 144 142 139 137 137 138 141 143 146 147 146 144 141 139 136 134 132 130 126 122 120 119 119 116 115 112 110 109 107 103 96 87 77 72 71 68 65 64 63 61 60 58 55 53 52 55 58 61
134 136 131 143 149 270 284 305 341 358 316 301 196 144 164 172 145 104 99 105 102 99 101 103 99 94 90 92 92 93 103 100 115 125 133 146 142 144 150 150 150 146 143 141 141 144 146 147 146 145 144 144 142 139 141 142 143 146 148 149 149 147 144 141 139 136 132 127 124 123 122 120 119 117 114 111 109 105 100 94 84 73 71 70 65 62 60 59 60 60 60 58 55 53 54 55 58
163 143 152 154 103 347 3 360 312 141 272 263 180 184 189 149 111 107 114 111 109 108 106 103 100 95 85 94 104 99 114 115 122 128 136 145 140 143 148 149 148 144 142 140 141 144 145 146 146 145 145 147 145 142 142 142 143 145 148 150 151 150 149 146 142 138 133 130 128 126 124 123 122 119 115 112 109 104 98 90 80 72 70 68 63 59 55 53 57 59 60 61 58 57 56 56 59
183 185 195 215 227 239 7 304 276 249 257 234 221 238 157 119 118 122 119 116 114 113 108 101 99 96 81 85 97 111 129 127 132 135 137 142 142 146 147 147 146 143 143 141 142 143 145 147 148 148 147 148 147 145 144 145 145 146 148 150 151 151 150 148 143 139 135 132 130 128 126 126 124 120 116 113 110 104 96 89 79 71 66 62 61 57 53 49 51 56 60 61 59 60 59 59 60
167 192 208 226 254 228 139 217 246 261 249 226 238 194 129 121 138 131 123 121 110 111 112 107 106 99 88 97 100 113 132 134 137 138 138 140 144 147 147 147 146 146 146 144 144 144 145 146 147 148 148 148 148 149 151 152 150 148 148 149 150 150 149 148 144 140 137 135 133 130 127 126 125 120 117 114 110 103 97 90 77 67 61 56 55 50 48 46 46 53 58 60 60 62 62 62 62
158 183 211 214 270 196 192 229 232 246 220 200 250 152 129 135 144 136 132 122 109 115 114 113 110 95 93 103 103 115 125 135 136 137 138 139 143 146 148 148 148 150 150 148 147 146 144 144 145 145 146 147 149 151 154 154 153 150 148 148 148 149 148 146 145 141 139 138 134 131 128 127 125 121 118 114 108 104 98 86 71 62 57 52 49 44 43 44 46 52 58 61 60 61 62 64 63
168 188 213 214 256 258 254 255 238 240 200 172 212 159 129 131 137 130 127 116 115 117 111 115 107 95 106 103 102 116 123 137 134 135 139 139 143 146 149 149 151 152 151 151 150 148 145 145 145 144 146 148 150 152 153 153 153 150 148 149 148 148 147 146 145 143 141 139 137 136 133 131 128 123 118 114 109 105 96 79 67 59 54 50 45 43 43 45 51 55 57 61 60 59 60 63 65
178 201 213 217 249 286 280 280 248 205 185 165 149 140 125 127 146 126 115 114 116 112 107 109 102 105 117 107 108 121 129 139 134 136 141 141 145 147 147 149 156 155 152 153 152 151 148 149 148 146 148 148 151 152 153 153 152 151 150 150 149 149 148 148 147 145 144 142 143 143 142 138 133 128 121 117 111 103 90 74 65 58 52 48 44 42 42 46 53 56 57 61 60 58 60 64 67
180 207 220 223 239 268 266 282 263 142 144 128 110 131 125 126 141 112 107 108 108 109 111 105 102 113 115 108 117 129 134 136 135 138 141 143 147 148 148 153 163 159 154 155 153 153 152 152 151 150 150 150 153 152 154 154 153 153 153 152 151 151 150 151 150 150 149 147 150 149 149 145 138 134 126 120 109 99 83 69 61 56 51 45 44 39 39 48 54 58 61 64 61 59 62 65 68
201 218 211 220 239 248 259 277 252 127 122 123 130 138 130 136 125 113 115 116 116 120 124 116 119 121 112 111 127 137 138 138 140 141 143 146 148 150 153 158 165 160 155 156 156 155 154 155 154 154 152 153 154 153 156 155 157 156 155 156 153 153 153 153 152 153 153 152 154 153 154 150 146 141 127 117 103 94 75 60 53 49 48 43 42 38 39 51 59 64 66 67 65 63 63 64 68
223 248 199 247 252 253 273 274 205 125 122 110 115 126 132 148 130 128 130 128 132 133 126 124 129 121 111 124 136 143 142 144 145 143 146 148 151 156 157 160 163 159 157 158 158 158 157 157 158 158 155 156 157 155 157 157 158 158 158 158 156 156 154 154 154 155 156 155 154 154 157 154 153 143 122 110 97 91 73 55 48 41 42 43 42 42 47 57 65 70 68 67 65 65 63 63 67
222 246 228 247 262 266 276 272 171 113 103 102 136 154 135 130 129 136 131 123 130 134 129 133 132 116 119 133 138 148 146 148 148 145 146 144 150 155 158 161 160 159 159 161 161 160 160 160 160 161 160 159 160 158 158 158 158 159 160 159 158 157 156 156 156 156 157 155 155 155 156 156 150 135 116 102 91 84 68 51 45 39 40 42 43 47 56 64 69 69 64 61 62 66 65 61 63
223 237 242 265 290 288 303 295 124 105 121 139 167 155 125 119 135 128 120 118 125 135 134 138 136 123 141 150 147 153 149 149 150 149 147 145 145 146 155 160 159 160 159 161 162 162 161 161 163 163 164 164 163 162 161 161 160 160 160 159 158 157 157 157 155 156 155 153 155 154 152 148 139 128 115 101 89 76 60 47 43 41 40 40 44 53 61 67 67 65 60 58 61 67 67 60 61
232 244 282 299 291 308 314 310 77 107 143 143 135 128 126 140 140 113 116 125 131 138 140 145 149 143 153 153 147 151 148 150 151 149 148 147 145 144 154 158 158 160 161 163 162 163 164 163 166 166 167 167 167 166 165 164 162 161 161 160 160 157 157 155 155 154 151 151 152 150 146 140 133 124 113 97 84 74 58 46 47 44 41 42 49 57 62 66 67 65 64 63 66 69 68 60 56
239 244 290 284 287 314 292 306 54 112 111 124 134 127 123 122 116 112 122 131 132 142 149 151 152 142 146 147 146 148 148 150 149 150 150 146 146 148 156 158 160 164 166 167 166 167 167 167 168 168 169 169 170 169 167 166 164 164 164 163 161 157 156 154 155 152 150 150 148 146 141 137 131 119 108 94 79 70 55 45 45 42 42 47 55 61 64 69 71 70 70 68 69 70 66 60 53
232 212 215 263 279 281 267 290 293 125 127 159 145 130 119 109 115 124 134 136 140 148 144 140 138 135 141 143 145 147 148 149 150 154 152 149 150 152 156 158 163 168 169 169 173 174 171 169 169 169 169 169 171 170 169 167 167 168 166 165 160 158 158 156 156 153 153 150 146 146 142 140 131 119 108 96 92 66 43 37 38 39 46 51 56 62 64 68 67 67 68 63 61 60 58 56 49
218 176 204 241 253 256 261 278 296 82 142 156 136 139 139 139 143 146 147 140 146 147 128 130 128 130 138 143 147 148 150 151 154 156 154 155 157 158 159 160 165 170 170 170 175 177 172 170 170 169 169 169 171 170 170 168 168 169 166 165 161 161 161 159 158 155 156 152 147 148 145 141 132 118 97 90 104 62 31 35 42 43 48 55 56 56 59 59 57 57 59 55 47 39 46 45 38
205 202 211 236 241 245 245 255 270 207 146 145 144 149 137 147 161 156 150 142 151 140 126 130 130 136 142 146 150 151 152 154 155 156 156 159 161 161 162 163 167 170 170 171 174 175 172 171 170 171 171 171 171 169 170 169 169 169 167 167 164 165 165 163 162 160 160 156 151 151 145 141 135 117 99 76 67 43 48 52 45 49 50 65 65 51 48 50 52 46 47 50 38 27 39 36 26
198 202 199 239 243 245 244 255 270 211 147 146 146 138 131 156 167 153 150 150 156 137 137 142 142 145 147 149 153 154 156 156 158 158 157 160 161 161 162 165 168 169 169 171 172 172 172 174 172 172 174 173 171 170 170 170 170 169 170 168 167 170 170 168 165 164 165 161 158 153 151 145 134 125 114 81 44 38 83 57 26 55 49 66 77 60 46 53 59 31 32 43 33 33 40 30 20
206 197 195 230 236 237 266 265 276 249 143 137 121 123 138 154 172 160 156 165 164 147 146 148 149 150 152 154 156 157 159 160 161 161 161 161 163 165 166 167 168 169 171 172 172 171 174 175 174 174 175 175 174 172 171 172 171 170 172 169 170 172 172 172 169 170 171 169 167 160 160 151 137 144 131 108 68 329 65 16 310 42 31 17 33 28 28 40 43 25 16 22 23 29 33 28 27
219 199 198 222 199 140 257 258 260 227 151 153 149 149 144 148 187 169 167 189 162 151 152 152 153 154 156 157 158 161 162 164 165 164 166 164 166 170 171 172 171 172 173 174 173 172 175 176 176 176 175 176 176 174 173 174 173 172 172 170 173 174 173 176 175 176 176 175 174 170 170 155 152 165 143 155 214 259 279 297 283 327 3 338 347 357 356 355 10 13 354 350 12 9 14 29 50
225 229 203 206 177 162 214 256 254 203 161 163 159 152 166 169 189 173 174 174 148 147 152 152 154 156 158 160 161 164 165 166 168 167 168 167 170 172 174 175 174 175 174 174 175 176 178 178 178 178 177 178 177 176 175 175 176 174 174 174 175 176 177 182 180 179 180 180 180 181 180 162 167 198 175 197 223 226 243 248 247 263 281 272 261 286 306 312 310 321 327 319 348 347 1 25 68
224 234 226 195 179 183 183 240 253 212 165 159 155 152 197 184 163 183 130 127 136 142 147 150 153 156 160 164 165 167 168 169 169 169 169 168 171 171 173 175 174 177 177 175 178 180 181 178 179 180 179 180 178 178 177 177 179 177 177 178 177 179 182 183 182 186 185 184 185 192 193 168 171 212 202 213 233 227 230 232 242 269 276 257 240 244 269 291 292 298 321 324 331 336 358 32 79
231 221 226 206 190 191 175 215 240 219 177 163 156 154 189 163 152 187 124 125 136 141 145 150 154 158 163 167 168 170 170 171 171 171 171 170 171 172 173 174 176 179 180 180 181 183 184 180 181 183 182 181 181 181 180 181 182 181 182 182 181 181 184 182 182 187 189 188 191 201 202 178 179 212 215 223 235 234 243 253 263 277 273 256 257 258 276 304 305 306 318 325 333 336 26 82 92
265 241 225 215 201 189 177 204 219 208 186 164 159 160 165 155 164 201 130 132 136 139 145 151 154 160 165 170 172 173 173 174 175 173 173 173 174 175 175 176 180 182 183 185 184 185 185 185 185 185 185 183 184 185 183 184 185 185 183 183 184 183 187 186 182 187 190 196 196 199 201 189 191 203 208 221 234 240 253 266 269 269 265 257 270 280 289 298 306 315 315 330 344 351 82 107 97
279 278 257 233 218 187 177 199 208 202 179 161 163 161 154 153 185 179 134 137 139 142 147 153 158 162 166 172 174 175 177 177 177 176 176 177 177 178 178 179 181 182 186 189 188 186 185 189 191 188 188 186 188 188 185 187 187 187 184 187 188 187 191 187 186 194 193 199 200 197 198 196 197 203 207 217 233 246 255 264 264 262 262 263 277 282 286 293 300 311 314 337 13 69 95 113 97
285 292 304 300 290 239 189 194 200 200 174 163 162 160 156 151 194 161 137 141 142 144 149 155 160 163 168 174 176 178 180 180 180 180 180 180 180 180 180 182 182 182 188 193 193 189 187 191 193 191 191 190 191 191 189 189 187 188 188 192 194 194 195 189 190 196 194 204 211 211 212 203 201 213 222 222 233 249 253 258 260 260 266 271 283 285 285 294 297 308 314 323 69 109 105 107 91
285 288 298 286 294 263 196 194 196 200 181 166 157 169 168 158 189 156 141 147 144 145 153 157 161 165 170 175 176 180 182 182 182 182 183 183 182 181 183 186 185 185 187 192 194 192 191 193 195 194 193 193 193 194 193 190 189 191 192 195 198 201 200 194 192 191 199 218 224 228 229 219 214 224 233 230 234 247 253 260 264 262 267 273 286 291 285 292 296 304 308 307 137 149 147 121 116
281 284 287 249 277 285 216 204 194 196 182 164 151 165 168 169 182 153 149 154 146 149 156 159 164 165 171 176 176 182 187 186 185 185 186 186 184 183 186 187 187 188 188 190 194 194 192 194 197 196 195 194 193 197 195 192 194 195 196 198 198 201 204 202 197 190 201 220 227 230 232 230 229 230 233 233 235 242 253 265 272 269 269 274 287 294 292 300 302 303 301 267 171 180 172 139 157
290 273 279 248 239 273 265 236 199 191 170 154 144 156 164 173 179 153 156 157 149 154 158 161 166 166 172 176 174 181 189 189 187 188 189 190 187 187 189 187 188 192 192 192 194 194 192 195 198 198 198 196 194 198 197 195 198 199 201 201 199 201 207 209 203 194 200 214 224 231 234 233 230 229 231 234 237 240 249 264 274 275 273 278 289 293 293 295 294 294 285 220 186 190 169 150 144
277 254 255 250 230 234 262 247 196 184 163 147 141 152 159 170 191 161 159 161 155 156 159 163 167 168 172 175 175 181 188 190 189 190 192 191 189 189 191 190 191 195 197 195 193 193 193 194 198 201 202 199 195 197 198 198 201 202 203 204 203 206 210 211 207 200 202 216 228 235 241 239 229 227 231 237 244 244 248 259 269 273 272 278 290 291 286 283 278 271 253 217 191 177 159 156 157
259 254 247 252 245 226 240 234 183 178 166 150 145 141 153 160 197 180 163 165 165 159 160 165 167 169 173 176 177 181 187 191 192 192 194 194 191 192 194 194 196 199 200 198 194 193 192 193 199 204 208 205 197 196 197 200 204 202 200 204 207 210 213 211 207 203 201 214 230 237 242 242 235 226 228 241 249 249 251 255 262 267 271 273 272 275 274 273 262 226 220 205 182 177 187 214 227
238 242 239 242 248 249 250 229 177 179 158 152 155 151 163 161 183 196 169 168 174 165 163 166 169 170 174 178 178 181 188 192 195 195 196 197 194 193 194 195 199 200 202 202 198 194 191 193 198 204 210 210 201 197 196 200 205 202 196 202 209 212 214 210 208 207 202 206 220 234 241 244 245 240 239 247 249 254 253 249 254 261 267 259 252 266 261 240 197 186 202 197 204 241 247 254 238
233 241 240 233 235 244 254 236 179 177 159 155 161 160 176 172 180 190 168 168 177 170 165 168 171 171 174 178 179 182 188 193 196 196 196 197 194 193 193 194 198 201 202 201 200 197 193 193 198 203 209 212 207 200 199 201 205 205 201 204 210 213 215 212 209 208 205 207 213 225 236 243 250 250 246 248 251 254 244 238 243 250 258 251 242 245 218 193 185 194 225 245 270 277 203 118 115
237 247 248 245 240 227 243 237 176 168 170 168 163 165 185 178 173 176 165 169 175 171 168 170 171 171 175 179 179 182 189 194 196 196 197 198 196 194 193 195 198 200 201 201 200 199 197 195 199 203 207 213 213 206 203 204 207 208 208 209 213 215 215 215 211 203 202 213 218 221 231 240 248 249 243 244 248 244 234 233 238 241 247 237 217 213 207 199 212 250 259 256 221 147 125 128 167
233 246 256 258 257 245 252 237 167 165 176 176 166 167 186 176 166 171 166 169 176 173 172 175 173 171 176 179 180 184 189 192 194 195 197 198 198 196 195 198 199 200 202 204 203 201 199 198 199 203 206 211 215 213 209 207 210 212 212 213 215 218 218 216 214 205 196 208 223 227 233 237 241 241 235 236 238 233 234 238 239 235 227 212 202 212 233 234 249 268 244 182 137 137 135 142 169
233 242 254 259 266 273 274 258 171 168 174 170 169 170 182 173 168 177 171 172 179 178 177 179 177 172 175 180 181 184 187 189 192 194 196 199 199 198 198 199 202 203 204 205 206 205 203 201 201 202 205 209 213 217 215 211 212 214 215 216 217 219 221 218 218 212 199 205 223 233 238 237 239 241 235 235 234 226 226 228 231 225 209 203 205 220 237 236 250 241 176 152 137 139 142 146 150
233 238 243 250 258 267 273 273 196 178 170 158 166 174 181 169 169 182 183 180 181 181 181 181 181 178 178 181 184 184 185 187 190 193 195 198 199 199 199 200 201 202 203 205 207 207 207 207 206 204 205 208 211 216 218 215 211 213 216 218 221 223 224 220 218 215 205 207 219 230 236 234 234 239 237 234 228 221 218 217 223 218 208 213 221 234 236 243 241 152 154 155 154 154 155 155 120
225 231 239 243 245 251 256 273 266 196 171 158 152 169 199 176 172 179 184 185 185 182 182 182 184 183 182 183 185 185 186 188 190 192 194 196 199 199 200 200 200 200 202 206 208 210 211 210 210 208 206 208 211 215 218 215 209 210 212 214 218 220 218 217 215 211 207 210 218 226 231 230 226 227 225 220 215 217 220 215 217 217 220 230 234 237 232 177 151 146 142 155 168 173 162 156 140
226 223 232 242 249 252 254 264 269 173 165 171 141 162 244 194 175 178 181 187 193 184 181 184 184 184 183 182 185 187 188 191 192 193 195 196 198 199 200 200 200 201 203 207 210 213 214 212 213 212 210 209 211 214 217 216 209 207 208 209 210 206 203 209 216 212 208 213 220 225 230 229 224 220 213 207 209 219 224 211 209 220 231 232 232 233 191 154 164 155 147 172 177 172 156 161 168
238 219 220 235 250 258 259 262 261 167 169 194 171 171 238 211 184 180 178 185 196 192 189 191 182 181 182 182 185 188 189 191 193 195 196 197 198 199 201 201 202 203 203 206 210 212 214 213 214 215 214 211 211 213 216 217 213 210 210 210 210 203 197 204 215 216 211 214 219 221 225 224 220 219 213 210 212 218 220 210 212 223 230 229 237 223 173 154 163 171 183 193 185 172 164 170 175
236 227 217 220 234 249 257 262 263 235 177 190 190 177 156 206 208 186 175 181 193 194 198 203 184 180 183 184 186 188 190 192 193 194 196 198 198 199 202 203 203 203 203 204 207 210 213 214 215 217 218 215 213 213 215 217 217 214 212 210 209 206 203 204 211 215 212 212 217 219 218 213 213 219 217 217 215 208 209 213 221 228 227 219 195 171 168 160 167 192 201 193 188 184 178 179 179
229 233 234 222 221 234 246 258 263 252 229 208 197 179 158 215 219 193 176 177 190 195 197 202 190 183 184 185 186 188 192 193 194 195 196 199 200 201 203 204 204 203 203 204 207 209 212 214 216 217 219 218 215 213 214 217 219 217 215 211 207 207 208 208 209 213 212 213 217 216 212 208 211 220 219 218 214 203 206 213 224 232 226 209 185 170 179 178 182 204 214 206 201 198 190 189 188
223 229 244 244 231 228 232 239 253 253 248 236 198 178 175 229 208 186 183 182 187 193 195 196 193 191 188 187 188 189 191 194 196 197 197 200 203 203 203 204 204 204 205 206 207 210 212 214 216 217 219 219 217 215 214 216 218 218 216 213 210 208 209 210 211 212 213 216 214 205 205 209 214 221 223 221 215 206 207 212 220 227 221 212 205 193 195 193 193 209 226 228 222 211 194 193 193
219 223 238 253 253 243 236 227 226 245 249 230 200 186 183 214 212 184 185 191 185 183 190 194 194 196 193 191 191 191 191 193 196 198 199 200 203 204 203 204 205 204 205 207 207 210 212 214 217 218 219 219 218 217 215 215 216 217 216 216 214 212 211 211 212 212 214 215 208 200 204 210 213 219 225 223 217 211 210 213 217 218 213 214 215 203 195 198 205 212 223 226 219 209 194 193 199
218 216 216 239 257 258 261 244 211 227 238 221 212 207 198 208 218 192 185 184 183 181 185 189 192 197 197 193 192 193 194 193 194 197 200 200 201 201 201 203 205 203 204 206 207 209 212 214 216 217 218 218 218 217 215 215 216 216 217 216 216 216 214 213 213 213 213 209 202 200 204 208 211 216 223 223 220 216 216 215 213 208 206 210 210 202 197 203 214 215 219 224 211 206 198 193 200
215 217 197 208 233 238 242 245 220 225 236 214 218 236 224 218 204 188 185 180 181 186 187 187 187 191 194 193 192 194 195 195 195 196 199 200 199 200 200 202 203 203 204 205 206 208 211 213 215 217 217 217 216 216 216 216 216 216 217 216 216 217 217 216 215 215 214 206 200 202 206 210 212 216 220 223 221 220 222 221 215 208 208 209 205 204 208 210 213 216 225 233 215 206 203 196 200
205 211 201 193 204 217 225 237 233 233 246 219 223 240 234 236 218 183 184 184 184 188 189 190 190 191 194 195 195 195 195 196 197 197 199 200 199 200 201 202 203 204 204 205 205 206 209 211 213 215 217 217 216 216 216 216 217 218 218 217 217 216 216 217 216 217 216 209 205 208 213 216 217 219 221 224 223 221 223 223 220 214 213 214 209 211 218 215 212 217 222 225 220 213 205 195 194
207 205 204 208 202 205 210 211 221 232 248 223 222 227 201 211 215 184 184 189 188 190 192 192 193 193 194 197 198 196 196 198 201 201 201 201 200 201 202 202 203 204 205 205 205 206 207 209 211 214 216 216 216 215 215 216 216 217 218 218 217 216 217 217 217 217 217 214 212 215 219 221 223 222 221 224 225 223 223 222 221 219 218 220 219 217 220 214 211 217 220 218 220 219 207 195 191
209 192 207 221 208 201 215 211 215 232 249 232 220 221 186 195 205 183 183 187 186 190 192 192 197 195 191 193 195 195 196 199 203 202 201 202 202 201 201 203 204 205 205 205 205 205 206 208 210 213 215 216 216 216 215 215 216 217 217 218 217 215 216 217 218 217 216 217 218 221 223 224 226 224 219 223 225 225 227 223 219 220 221 222 222 217 216 213 211 216 218 214 217 217 207 199 195
178 199 221 225 199 201 233 241 244 244 242 236 219 242 241 233 242 202 183 183 182 186 188 191 200 197 189 188 191 192 195 198 199 198 197 200 202 201 201 202 203 204 205 205 205 205 206 208 210 211 214 216 217 216 215 215 215 216 217 217 217 215 215 218 218 216 215 217 220 225 226 225 225 222 217 219 223 224 227 226 220 222 223 222 220 215 213 211 211 216 219 217 219 219 211 208 205
183 205 217 224 239 228 219 228 236 232 240 230 212 239 234 214 246 234 194 185 184 189 188 189 196 192 183 182 187 190 191 193 194 195 196 199 201 201 201 202 203 205 206 206 206 205 206 208 210 211 212 214 217 217 215 215 215 215 216 217 216 215 216 218 220 218 216 217 220 224 225 224 223 219 215 217 220 223 226 226 224 225 223 217 214 213 211 207 207 214 220 221 224 224 217 214 213
215 230 194 165 223 230 209 216 208 210 237 242 233 244 227 199 210 209 197 186 182 191 195 194 192 179 172 175 180 185 188 189 192 196 199 203 204 203 202 203 204 205 206 206 205 205 206 208 211 213 214 215 217 217 216 216 216 215 216 217 216 216 216 218 220 219 217 218 220 221 222 223 223 219 216 216 217 222 225 224 225 226 221 214 211 211 211 209 206 210 218 221 222 224 222 217 214
216 243 238 208 210 202 200 221 218 201 218 223 235 245 235 217 208 202 198 183 180 187 190 194 190 169 168 172 176 182 186 189 193 197 201 205 208 208 206 205 205 205 206 205 205 205 205 207 211 213 215 215 216 217 216 215 215 215 216 216 216 216 216 217 219 220 219 219 220 222 221 221 223 222 219 218 219 223 224 222 225 226 221 217 215 212 213 215 211 210 216 217 215 218 222 220 217
199 219 228 229 230 193 192 209 216 208 196 195 221 238 244 241 211 209 214 192 186 188 182 187 188 172 172 174 179 186 191 194 197 200 202 206 209 210 209 207 205 204 204 204 205 206 206 207 210 212 214 214 214 215 216 216 215 214 215 215 216 215 215 217 219 220 219 220 221 223 222 222 223 224 223 222 223 224 224 223 226 229 228 227 226 222 219 219 217 213 214 216 213 214 218 221 220
191 202 218 225 225 207 207 216 216 212 207 205 216 242 255 249 220 218 223 207 199 196 184 183 183 176 177 181 186 191 196 199 201 202 203 206 207 207 207 206 202 201 203 205 206 206 206 207 209 211 213 214 214 214 215 216 215 214 215 216 216 215 216 218 220 220 219 220 222 223 223 223 224 225 225 225 225 225 226 227 230 233 235 237 236 232 226 222 220 216 215 216 214 214 216 218 219